Knoxville, TN

4:54 AM EDT on May 30, 2017 (GMT -0400)
McGhee Tyson

Weather History for KTYS - May, 2013

Change the Weather History Date:

Sunday, May 5, 2013

  Actual Average Record
Temperature  
Mean Temperature 55 °F 64 °F  
Max Temperature 58 °F 75 °F 93 °F (1959)
Min Temperature 51 °F 53 °F 37 °F (1954)
Degree Days  
Heating Degree Days 10 3  
Month to date heating degree days 16 17  
Since 1 July heating degree days 3572 3592  
Cooling Degree Days 0 2  
Month to date cooling degree days 7 10  
Year to date cooling degree days 38 47  
Growing Degree Days 4 (Base 50)    
Moisture  
Dew Point 53 °F    
Average Humidity 93    
Maximum Humidity 100    
Minimum Humidity 86    
Precipitation  
Precipitation 1.03 in 0.15 in 3.04 in (2003)
Month to date precipitation 1.77 0.75  
Year to date precipitation 29.67 17.68  
Snow  
Snow 0.00 in 0.00 in - ()
Month to date snowfall 0.0 0.0  
Since 1 July snowfall 3.8 6.5  
Snow Depth 0.00 in    
Sea Level Pressure  
Sea Level Pressure 29.81 in    
Wind  
Wind Speed 6 mph (North)    
Max Wind Speed 18 mph    
Max Gust Speed 22 mph    
Visibility 5 miles    
Events Rain    
T = Trace of Precipitation, MM = Missing Value Source: NWS Daily Summary

Daily Weather History Graph

Daily Weather History Graph

Search for Another Location

Airport or City:

Trip Planner

Search our weather history database for the weather conditions in past years. The results will help you decide how hot, cold, wet, or windy it might be!

Date:

Astronomy

May. 05, 2013 Rise Set
Actual Time 6:39 AM EDT 8:26 PM EDT
Civil Twilight 6:11 AM EDT 8:54 PM EDT
Nautical Twilight 5:38 AM EDT 9:27 PM EDT
Astronomical Twilight 5:02 AM EDT 10:03 PM EDT
Moon 4:01 AM EDT (5/5) 4:32 PM EDT (5/5)
Length of Visible Light 14h 42m
Length of Day
13h 47m
Waning Crescent, 18% of the Moon is Illuminated
May 5
Waning Crescent
May 9
New
May 18
First Quarter
May 25
Full
May 31
Last Quarter

Hourly Weather History & Observations

Time (EDT) Temp. Dew Point Humidity Pressure Visibility Wind Dir Wind Speed Gust Speed Precip Events Conditions
12:53 AM 54.0 °F 52.0 °F 93% 29.87 in 10.0 mi NE 6.9 mph - 0.00 in Rain Light Rain
1:53 AM 53.1 °F 51.1 °F 93% 29.82 in 10.0 mi NE 12.7 mph - 0.02 in Rain Light Rain
2:53 AM 53.1 °F 51.1 °F 93% 29.79 in 10.0 mi NE 8.1 mph - 0.00 in Rain Light Rain
3:53 AM 53.1 °F 50.0 °F 89% 29.78 in 10.0 mi ENE 8.1 mph - 0.00 in Rain Light Rain
4:53 AM 52.0 °F 50.0 °F 93% 29.78 in 10.0 mi Calm Calm - 0.04 in Rain Light Rain
5:41 AM 51.8 °F 50.0 °F 94% 29.79 in 10.0 mi WNW 5.8 mph - 0.01 in Rain Light Rain
5:49 AM 51.8 °F 50.0 °F 94% 29.80 in 10.0 mi West 6.9 mph - 0.01 in Rain Light Rain
5:53 AM 52.0 °F 51.1 °F 97% 29.80 in 10.0 mi West 8.1 mph - 0.01 in Rain Light Rain
6:24 AM 51.8 °F 51.8 °F 100% 29.81 in 4.0 mi NW 8.1 mph - 0.05 in Rain Light Rain
6:38 AM 51.8 °F 51.8 °F 100% 29.81 in 3.0 mi NW 8.1 mph - 0.05 in Rain Rain
6:53 AM 52.0 °F 51.1 °F 97% 29.80 in 4.0 mi NNW 8.1 mph - 0.09 in Rain Light Rain
7:00 AM 51.8 °F 51.8 °F 100% 29.82 in 6.0 mi North 6.9 mph - 0.01 in Rain Light Rain
7:13 AM 51.8 °F 51.8 °F 100% 29.81 in 3.0 mi North 5.8 mph - 0.04 in Rain Light Rain
7:30 AM 53.6 °F 51.8 °F 94% 29.82 in 4.0 mi NNW 5.8 mph - 0.07 in Rain Light Rain
7:42 AM 51.8 °F 51.8 °F 100% 29.82 in 2.5 mi Variable 3.5 mph - 0.09 in Rain Heavy Rain
7:53 AM 53.1 °F 52.0 °F 96% 29.81 in 2.0 mi North 3.5 mph - 0.12 in Rain Rain
8:22 AM 53.6 °F 51.8 °F 94% 29.83 in 2.0 mi Calm Calm - 0.06 in Rain Rain
8:51 AM 53.6 °F 51.8 °F 94% 29.83 in 2.0 mi Calm Calm - 0.13 in Rain Rain
8:53 AM 53.1 °F 52.0 °F 96% 29.83 in 2.0 mi Calm Calm - 0.13 in Rain Rain
9:00 AM 53.6 °F 51.8 °F 94% 29.84 in 2.0 mi East 3.5 mph - 0.02 in Rain Rain
9:53 AM 54.0 °F 52.0 °F 93% 29.83 in 2.0 mi Calm Calm - 0.12 in Rain Rain
10:32 AM 53.6 °F 51.8 °F 94% 29.84 in 2.0 mi NE 6.9 mph - 0.06 in Rain Light Rain
10:53 AM 54.0 °F 52.0 °F 93% 29.83 in 2.0 mi ENE 5.8 mph - 0.08 in Rain Light Rain
11:10 AM 53.6 °F 53.6 °F 100% 29.84 in 2.0 mi NE 3.5 mph - 0.02 in Rain Light Rain
11:53 AM 54.0 °F 53.1 °F 97% 29.83 in 2.0 mi NNE 4.6 mph - 0.08 in Rain Rain
12:06 PM 53.6 °F 53.6 °F 100% 29.84 in 2.0 mi NNE 3.5 mph - 0.05 in Rain Heavy Rain
12:43 PM 53.6 °F 53.6 °F 100% 29.84 in 2.0 mi Calm Calm - 0.12 in Rain Rain
12:51 PM 55.4 °F 53.6 °F 94% 29.83 in 3.0 mi NNE 4.6 mph - 0.14 in Rain Rain
12:53 PM 55.0 °F 53.1 °F 93% 29.83 in 2.0 mi NNE 4.6 mph - 0.14 in Rain Rain
1:01 PM 55.4 °F 53.6 °F 94% 29.83 in 2.0 mi North 4.6 mph - 0.02 in Rain Rain
1:46 PM 55.4 °F 53.6 °F 94% 29.82 in 2.0 mi North 4.6 mph - 0.07 in Rain Rain
1:53 PM 55.4 °F 53.6 °F 94% 29.82 in 2.0 mi North 5.8 mph - N/A Rain Light Rain
2:24 PM 55.4 °F 53.6 °F 94% 29.81 in 2.0 mi NNE 6.9 mph - 0.01 in Rain Light Rain
2:51 PM 57.2 °F 53.6 °F 88% 29.81 in 2.0 mi NNE 6.9 mph - 0.02 in Rain Light Rain
2:53 PM 57.0 °F 55.0 °F 93% 29.80 in 2.0 mi NNE 5.8 mph - 0.02 in Rain Light Rain
3:06 PM 57.2 °F 53.6 °F 88% 29.81 in 2.0 mi North 5.8 mph - 0.00 in Rain Light Rain
3:41 PM 57.2 °F 55.4 °F 94% 29.81 in 5.0 mi North 6.9 mph - 0.03 in Rain Light Rain
3:53 PM 57.0 °F 54.0 °F 89% 29.79 in 6.0 mi North 6.9 mph - 0.03 in Rain Light Rain
4:26 PM 57.2 °F 55.4 °F 94% 29.79 in 2.0 mi North 4.6 mph - 0.01 in Rain Light Rain
4:41 PM 57.2 °F 55.4 °F 94% 29.80 in 1.8 mi North 3.5 mph - 0.02 in Rain Rain
4:53 PM 57.0 °F 55.0 °F 93% 29.79 in 1.8 mi North 3.5 mph - 0.04 in Rain Rain
5:42 PM 57.2 °F 55.4 °F 94% 29.78 in 6.0 mi North 4.6 mph - 0.02 in Rain Light Rain
5:53 PM 57.9 °F 55.0 °F 90% 29.77 in 7.0 mi North 3.5 mph - 0.02 in Rain Light Rain
6:53 PM 57.9 °F 55.9 °F 93% 29.76 in 6.0 mi NE 4.6 mph - 0.01 in Rain Light Rain
7:53 PM 57.2 °F 55.4 °F 94% 29.78 in 10.0 mi NNE 5.8 mph - N/A   Overcast
8:53 PM 57.0 °F 55.0 °F 93% 29.78 in 10.0 mi Calm Calm - N/A   Overcast
9:11 PM 57.2 °F 55.4 °F 94% 29.79 in 10.0 mi North 3.5 mph - N/A   Mostly Cloudy
9:53 PM 55.0 °F 53.1 °F 93% 29.78 in 10.0 mi NE 4.6 mph - N/A   Mostly Cloudy
10:32 PM 55.4 °F 53.6 °F 94% 29.80 in 10.0 mi South 12.7 mph 19.6 mph N/A Rain Light Rain
10:53 PM 52.0 °F 48.9 °F 89% 29.81 in 5.0 mi WSW 13.8 mph - 0.00 in Rain Light Rain
11:53 PM 51.1 °F 48.9 °F 92% 29.81 in 10.0 mi SSW 3.5 mph - 0.00 in   Overcast